Weather observations for the past three days for
Watertown, Watertown International Airport
Imperial (Metric)
Date Time (edt) Wind (mph) Vis. (mi.) Weather Sky Cond. Temperature (ºF) Relative Humidity Wind Chill (°F) Heat Index (°F) Pressure Precipitation (in)
Air Dwpt 6 hour altimeter (in) sea level (mb) 1 hr 3 hr 6 hr
Max. Min.
12 14:56 SW 8 10.00 A Few Clouds FEW050 66.9 51.1 57% 30.02 1016.3
12 13:56 W 9 10.00 Overcast OVC050 66.9 50 69.1 59 55% 30.03 1016.6
12 12:56 W 8 10.00 Overcast OVC049 66 52 61% 30.04 1017.1
12 11:56 SW 7 10.00 Overcast OVC049 64.9 53.1 66% 30.05 1017.1
12 09:56 Vrbl 7 10.00 Overcast SCT024 OVC047 62.1 53.1 73% 30.05 1017.5
12 08:56 S 3 10.00 Overcast OVC042 60.1 52 75% 30.06 1017.7
12 07:56 S 3 10.00 Overcast OVC043 59 51.1 59 55.9 75% 30.04 1017.2
12 06:56 Calm 10.00 Overcast OVC041 57.9 52 81% 30.04 1017.1
12 05:56 Calm 10.00 Overcast OVC041 55.9 52 87% 30.03 1016.7
12 04:56 S 3 10.00 Overcast OVC040 55.9 51.1 84% 30.03 1016.7
12 03:56 Calm 10.00 Overcast OVC040 55.9 52 87% 30.02 1016.4
12 02:56 Calm 10.00 Overcast OVC040 55.9 52 87% 30.02 1016.6
12 01:56 S 5 10.00 Overcast OVC039 55.9 52 59 55.9 87% 30.03 1016.8
12 00:56 Calm 10.00 Overcast OVC039 55.9 52 87% 30.03 1016.8
11 23:56 S 3 10.00 Overcast OVC039 57 51.1 81% 30.03 1016.8
11 22:56 S 5 10.00 Overcast OVC038 57 51.1 81% 30.04 1017.1
11 21:56 SW 5 10.00 Overcast OVC037 57 51.1 81% 30.03 1016.7
11 20:56 Calm 10.00 Overcast OVC035 57.9 52 81% 30.01 1016.2
11 19:56 SW 3 10.00 Overcast OVC036 59 51.1 61 59 75% 30 1015.9
11 17:56 W 3 10.00 Overcast OVC034 60.1 48.9 67% 29.99 1015.3
11 16:56 W 5 10.00 Overcast OVC034 60.1 50 70% 29.99 1015.5
11 15:56 W 6 10.00 Overcast OVC033 60.1 50 70% 29.99 1015.6
11 14:56 SW 8 10.00 Overcast OVC029 59 50 72% 30 1015.7
11 13:56 SW 8 10.00 Overcast FEW022 OVC028 60.1 50 60.1 53.1 70% 29.99 1015.5
11 12:56 W 8 10.00 Overcast OVC029 60.1 48.9 67% 29.99 1015.2
11 11:56 NW 3 10.00 Overcast OVC021 57.9 48 70% 29.99 1015.4
11 10:56 SW 5 10.00 Overcast BKN020 OVC032 57.9 48.9 72% 29.98 1015.1
11 09:56 Calm 10.00 Overcast BKN017 OVC034 55.9 46.9 72% 29.98 1015.0
11 08:56 N 5 10.00 Overcast BKN014 OVC037 54 46.9 77% 29.98 1015.0
11 07:56 N 6 10.00 Overcast OVC016 53.1 46 53.1 52 77% 29.97 1014.7
11 06:56 N 5 10.00 Overcast FEW017 OVC030 53.1 46.9 80% 29.94 1013.9
11 05:56 N 5 10.00 Overcast OVC029 52 46 80% 29.92 1013.1
11 04:56 Calm 10.00 Overcast SCT027 OVC033 52 46.9 83% 29.91 1012.6
11 03:56 NE 3 10.00 Overcast BKN023 OVC035 52 46.9 83% 29.89 1012.2
11 02:56 NE 7 10.00 Overcast OVC023 53.1 46 77% 29.89 1012.0
11 01:56 N 6 10.00 Overcast OVC023 53.1 46.9 59 53.1 80% 29.88 1011.7
11 00:56 N 6 10.00 Overcast OVC022 54 46.9 77% 29.87 1011.5
10 23:56 NE 5 10.00 Overcast OVC019 55 48 77% 29.86 1011.0
10 22:56 N 7 10.00 Overcast OVC025 55.9 48.9 77% 29.84 1010.3
10 21:56 N 8 10.00 Overcast BKN026 OVC031 57 50 78% 29.82 1009.5
10 20:56 NW 5 10.00 Overcast OVC034 57.9 52 81% 29.79 1008.6
10 19:56 NW 3 10.00 Overcast BKN028 OVC034 59 51.1 60.1 57 75% 29.77 1008.0
10 18:56 W 7 10.00 Overcast OVC025 59 51.1 75% 29.76 1007.6
10 17:56 W 5 10.00 Overcast SCT030 OVC035 59 52 78% 29.74 1007.0
10 16:56 NW 5 10.00 Overcast BKN016 OVC025 57.9 53.1 84% 29.74 1006.8
10 15:56 W 8 10.00 Overcast OVC025 57.9 52 81% 29.72 1006.2
10 14:56 W 12 10.00 Overcast OVC026 57.9 51.1 78% 29.7 1005.6
10 13:56 SW 3 10.00 Overcast OVC026 59 51.1 59 55 75% 29.68 1005.0
10 12:56 Calm 10.00 Overcast OVC023 57.9 52 81% 29.67 1004.6
10 11:56 Calm 10.00 Overcast OVC025 55.9 51.1 84% 29.66 1004.1
10 10:56 N 5 10.00 Overcast OVC017 55 51.1 87% 29.65 1003.8
10 09:56 N 9 10.00 Overcast BKN015 BKN021 OVC029 55.9 50 81% 29.63 1003.1
10 08:56 W 14 10.00 Overcast SCT014 BKN019 OVC033 59 54 83% 29.62 1002.7
10 07:56 W 13 10.00 Overcast BKN012 OVC019 57.9 53.1 59 57.9 84% 29.6 1002.3
10 06:56 SW 10 G 22 10.00 Light Rain OVC015 57.9 54 87% 29.6 1002.0
10 05:56 SW 8 10.00 Overcast OVC016 57.9 53.1 84% 29.58 1001.3
10 04:56 W 9 10.00 Overcast FEW014 OVC065 57.9 53.1 84% 29.56 1000.8
10 03:56 SW 6 10.00 Overcast SCT020 OVC070 57.9 52 81% 29.57 1001.0
10 02:56 W 10 10.00 Overcast BKN020 BKN050 OVC070 57.9 52 81% 29.57 1000.9
10 01:56 W 7 10.00 Overcast BKN050 BKN055 OVC090 59 52 60.1 57.9 78% 29.57 1001.0
10 00:56 W 8 10.00 Overcast FEW044 BKN055 OVC075 59 51.1 75% 29.57 1001.0
09 23:56 SW 6 10.00 Overcast FEW060 OVC080 60.1 52 75% 29.58 1001.3
09 22:56 SW 8 10.00 Overcast SCT055 BKN070 OVC080 59 52 78% 29.58 1001.6
09 21:56 SW 9 10.00 Overcast FEW016 OVC043 59 53.1 81% 29.58 1001.6
09 20:56 SW 12 G 23 10.00 Overcast BKN018 BKN041 OVC055 59 52 78% 29.57 1001.3
09 19:56 SW 14 G 23 10.00 Mostly Cloudy SCT019 BKN043 60.1 52 66.9 60.1 75% 29.57 1001.0 0.01
09 18:56 SW 14 G 26 10.00 A Few Clouds FEW042 62.1 51.1 67% 29.56 1000.7
09 17:56 SW 13 G 21 10.00 Overcast SCT045 OVC085 63 48.9 60% 29.55 1000.4
09 16:56 SW 12 G 25 10.00 Mostly Cloudy BKN070 63 50 63% 29.56 1000.9 0.01
09 15:56 W 15 G 39 10.00 Light Rain BKN075 OVC100 62.1 48 60% 29.57 1001.3
Date Time (edt) Wind (mph) Vis. (mi.) Weather Sky Cond. Air Dwpt Max. Min. Relative Humidity Wind Chill (°F) Heat Index (°F) altimeter (in) sea level (mb) 1 hr 3 hr 6 hr
6 hour
Temperature (ºF) Pressure Precipitation (in)